Temperature
-1 -1 -1 -1 -0 -1 -1 -1 -0 -0 -0 0 -1 -1 -2 -2 -2 -2 -2 -2 -2 -2 -2 -1 -1 -1 -1 -1 -1 -1 -1 -1 -1 -1 -1 -1 -1 -1 -1 -1 -1 -1 -1 -1
-1 -1 -1 -1 -1 -1 -1 -1 -1 -1 -1 -1 -2 -2 -2 -2 -2 -2 -2 -2 -2 -2 -2 -2 -2 -2 -2 -1 -1 -1 -1 -1 -1 -1 -1 -1 -1 -1 -1 -1 -1 -1 -1 -1
-1 -2 -1 -1 -1 -1 -2 -2 -2 -1 -1 -2 -3 -3 -3 -3 -3 -3 -3 -3 -3 -3 -2 -2 -2 -2 -2 -2 -2 -2 -2 -2 -2 -2 -2 -2 -2 -2 -2 -2 -1 -1 -2 -2
-2 -2 -1 -0 -2 -2 -2 -2 -3 -2 -3 -3 -3 -3 -2 -2 -3 -3 -3 -3 -3 -3 -3 -2 -2 -2 -2 -2 -2 -2 -2 -2 -2 -2 -2 -2 -2 -2 -2 -2 -2 -2 -2 -2
-3 -2 -2 -1 -2 -3 -3 -3 -3 -3 -4 -4 -3 -3 -3 -2 -3 -3 -3 -3 -3 -3 -3 -3 -3 -2 -2 -2 -2 -2 -2 -3 -3 -3 -3 -2 -2 -2 -2 -2 -2 -2 -3 -3
-4 -2 -1 -0 -2 -3 -3 -2 -3 -4 -4 -4 -4 -4 -3 -3 -3 -3 -3 -3 -3 -3 -3 -3 -3 -3 -3 -3 -3 -3 -3 -3 -3 -3 -3 -3 -3 -3 -3 -3 -3 -3 -3 -3
-4 -3 -3 -3 -3 -3 -2 -2 -3 -3 -3 -4 -4 -4 -3 -3 -3 -3 -3 -3 -3 -3 -3 -3 -3 -3 -3 -3 -3 -3 -3 -3 -3 -3 -3 -3 -3 -3 -3 -3 -3 -3 -3 -3
-5 -3 -2 -4 -4 -3 -3 -3 -3 -3 -3 -4 -4 -4 -4 -4 -3 -4 -4 -4 -3 -3 -3 -3 -3 -3 -3 -3 -4 -4 -4 -4 -4 -4 -4 -4 -4 -4 -4 -4 -4 -4 -4 -4
-4 -3 -3 -4 -3 -3 -3 -3 -3 -3 -3 -4 -4 -4 -4 -4 -4 -4 -4 -4 -4 -4 -4 -4 -4 -4 -4 -4 -4 -4 -4 -4 -4 -4 -4 -4 -4 -4 -4 -4 -4 -4 -4 -4
-6 -5 -4 -4 -3 -3 -3 -3 -3 -3 -4 -4 -4 -4 -4 -4 -4 -4 -4 -4 -4 -4 -4 -4 -4 -4 -4 -4 -4 -4 -4 -4 -4 -4 -4 -4 -4 -5 -5 -4 -4 -4 -4 -4
-6 -6 -5 -3 -3 -3 -3 -3 -3 -3 -4 -4 -4 -4 -4 -4 -5 -5 -4 -4 -4 -4 -4 -4 -4 -4 -5 -5 -5 -5 -5 -5 -5 -5 -5 -5 -5 -5 -5 -5 -5 -5 -5 -5
-4 -4 -5 -3 -3 -3 -3 -3 -4 -4 -4 -4 -4 -4 -5 -5 -5 -5 -5 -4 -5 -5 -5 -5 -5 -5 -5 -5 -5 -5 -5 -5 -5 -5 -5 -5 -5 -5 -5 -5 -5 -5 -5 -5
-3 -3 -3 -3 -3 -3 -3 -4 -4 -4 -4 -4 -5 -5 -5 -5 -5 -5 -5 -5 -5 -5 -5 -5 -5 -5 -5 -5 -5 -5 -5 -5 -5 -5 -6 -5 -5 -5 -5 -5 -5 -5 -5 -5
-3 -3 -4 -3 -4 -4 -4 -4 -4 -4 -5 -5 -5 -5 -5 -5 -5 -5 -5 -5 -5 -5 -5 -5 -5 -5 -5 -5 -6 -6 -6 -6 -6 -6 -6 -6 -6 -6 -6 -5 -5 -5 -5 -5
-3 -4 -4 -4 -4 -4 -4 -4 -4 -5 -5 -5 -5 -5 -5 -5 -5 -5 -5 -5 -5 -5 -5 -5 -6 -5 -6 -6 -6 -6 -6 -6 -6 -6 -6 -6 -6 -6 -6 -6 -6 -6 -6 -6
-4 -4 -4 -4 -4 -4 -4 -4 -5 -5 -5 -5 -5 -5 -5 -5 -5 -5 -6 -6 -6 -6 -6 -6 -6 -6 -6 -6 -6 -6 -6 -6 -6 -6 -6 -6 -6 -6 -6 -6 -6 -6 -6 -6
-5 -5 -5 -5 -5 -5 -5 -5 -5 -5 -5 -5 -5 -5 -6 -6 -6 -6 -6 -6 -6 -6 -6 -6 -6 -6 -6 -6 -6 -6 -6 -6 -6 -6 -6 -6 -6 -6 -6 -6 -6 -6 -6 -7
-4 -4 -4 -4 -5 -5 -5 -5 -5 -5 -5 -5 -6 -6 -6 -6 -6 -6 -6 -6 -6 -6 -6 -6 -6 -6 -6 -6 -6 -6 -6 -6 -6 -6 -7 -7 -7 -7 -7 -7 -7 -7 -7 -7
-4 -4 -4 -5 -5 -5 -5 -5 -5 -5 -5 -6 -6 -6 -6 -6 -6 -6 -6 -6 -6 -6 -6 -6 -6 -6 -6 -6 -6 -6 -6 -7 -7 -7 -7 -7 -7 -7 -7 -7 -7 -7 -7 -7
-5 -5 -5 -5 -5 -5 -5 -5 -5 -6 -6 -6 -6 -6 -6 -6 -6 -6 -6 -6 -6 -6 -6 -6 -6 -6 -6 -6 -6 -7 -7 -7 -7 -7 -7 -7 -7 -7 -7 -7 -7 -7 -7 -7
-5 -5 -5 -5 -5 -5 -5 -6 -6 -6 -6 -6 -6 -6 -6 -6 -6 -6 -6 -6 -6 -6 -6 -6 -6 -6 -6 -7 -7 -7 -7 -7 -7 -7 -7 -7 -7 -7 -7 -7 -7 -7 -7 -7
-5 -5 -5 -5 -5 -6 -6 -6 -6 -6 -6 -6 -6 -6 -6 -7 -7 -7 -7 -7 -7 -7 -7 -7 -7 -7 -7 -7 -7 -7 -7 -7 -7 -7 -7 -7 -8 -8 -8 -8 -8 -8 -8 -8
-5 -5 -5 -5 -6 -6 -6 -6 -6 -6 -6 -6 -7 -7 -7 -7 -7 -7 -7 -7 -7 -7 -7 -7 -7 -7 -7 -7 -7 -7 -7 -7 -7 -8 -8 -8 -8 -8 -8 -8 -8 -8 -8 -8
-5 -6 -6 -6 -6 -6 -6 -6 -6 -6 -7 -7 -7 -7 -7 -7 -7 -7 -7 -7 -7 -7 -7 -7 -7 -7 -7 -7 -7 -7 -7 -7 -7 -8 -8 -8 -8 -8 -8 -8 -8 -8 -8 -8
-6 -6 -6 -6 -6 -6 -6 -6 -6 -6 -7 -7 -7 -7 -7 -7 -7 -7 -7 -7 -7 -7 -7 -7 -7 -7 -7 -7 -8 -8 -8 -8 -8 -8 -8 -8 -8 -8 -8 -9 -9 -9 -9 -9
-6 -6 -6 -6 -6 -6 -7 -7 -7 -7 -7 -7 -7 -7 -7 -7 -7 -7 -7 -7 -7 -7 -7 -7 -7 -8 -8 -8 -8 -8 -8 -8 -8 -8 -8 -8 -8 -9 -9 -9 -9 -9 -9 -9
-6 -6 -6 -6 -6 -7 -7 -7 -7 -7 -7 -7 -7 -7 -7 -7 -7 -7 -7 -7 -7 -7 -7 -8 -8 -8 -8 -8 -8 -8 -8 -8 -8 -8 -8 -9 -9 -9 -9 -9 -9 -9 -9 -9
Wind_Speed
6 5 4 6 7 6 8 8 9 10 11 12 8 6 5 4 5 5 6 6 5 5 5 5 4 4 4 4 3 3 3 3 3 3 3 3 3 3 3 3 2 2 2 2
5 4 4 7 9 9 9 8 9 10 12 7 4 3 4 4 5 6 7 7 7 6 6 5 5 5 4 4 3 3 3 3 3 3 3 3 3 3 3 3 2 2 2 2
4 4 4 7 8 8 6 6 7 9 9 4 5 6 5 5 5 6 7 7 7 7 6 6 6 5 4 4 3 2 2 2 2 2 2 3 3 3 2 2 2 2 2 2
1 2 6 7 2 4 5 7 7 7 6 5 5 7 6 5 5 6 6 7 7 6 6 6 5 4 4 3 2 2 2 2 2 2 3 3 3 2 2 2 1 2 2 2
2 3 8 7 3 3 4 6 5 5 5 5 5 5 5 3 3 5 6 7 6 6 5 5 4 3 2 2 1 2 2 2 3 3 3 3 3 3 2 2 2 2 2 2
2 3 6 6 2 1 1 5 3 3 5 5 4 5 6 4 5 6 7 6 6 5 4 4 3 2 1 1 1 2 3 3 3 2 3 3 3 2 2 1 1 2 2 2
4 5 8 5 2 2 2 5 3 3 5 4 5 6 7 7 6 6 6 6 5 4 4 3 2 1 1 1 2 3 3 2 2 2 3 2 2 2 1 1 1 1 2 2
4 4 7 2 2 4 5 3 3 4 4 5 7 7 7 6 6 6 6 6 5 4 4 3 1 0 1 2 3 2 2 2 2 2 2 2 2 2 1 0 1 1 2 2
7 7 4 3 5 4 3 4 4 4 5 5 6 6 7 6 6 5 5 5 4 3 3 3 2 1 2 2 2 2 2 2 2 3 2 2 1 1 1 1 1 1 1 2
5 7 6 5 5 5 4 4 5 5 5 5 6 6 6 6 5 5 5 5 4 3 3 4 3 2 2 2 1 1 1 2 2 2 3 3 2 1 1 1 1 1 2 2
6 7 6 5 5 6 5 4 4 5 5 5 5 6 5 5 5 5 5 4 3 2 3 4 4 3 2 2 1 1 1 2 2 2 2 2 2 2 1 1 1 2 2 2
7 6 5 6 5 4 4 5 5 5 5 4 4 5 5 5 5 4 5 3 2 3 3 4 3 3 2 1 0 0 1 1 1 1 1 2 2 3 4 3 4 4 4 3
6 5 5 5 5 4 4 5 5 4 4 5 4 3 4 4 4 4 4 3 3 3 3 3 3 3 2 2 1 0 1 1 1 1 1 1 2 2 3 5 5 5 5 5
4 3 4 4 4 4 4 4 3 3 3 3 3 3 3 3 4 4 4 4 3 2 2 2 2 3 3 1 1 0 0 1 1 1 1 1 1 1 1 2 3 3 5 6
4 4 5 4 3 3 3 2 3 3 3 3 2 2 3 3 4 4 4 3 2 2 2 2 2 3 3 1 1 1 0 1 1 1 1 1 1 1 1 2 2 3 3 4
3 2 3 3 4 4 3 3 3 4 4 4 3 3 3 3 4 4 4 2 1 2 3 2 2 3 2 1 1 1 1 1 1 1 1 1 1 1 2 2 2 2 3 3
2 3 3 4 4 5 4 4 4 4 4 4 4 4 3 3 3 3 3 2 2 2 3 2 3 3 2 2 1 1 1 1 2 1 1 1 1 1 1 2 2 2 3 3
4 5 4 4 5 5 4 4 3 4 4 4 3 3 2 2 3 4 3 2 2 3 2 2 2 2 2 1 1 0 0 1 1 1 1 1 1 1 1 2 2 2 3 3
2 2 3 3 3 3 3 3 3 3 3 2 2 3 3 3 3 3 2 1 1 3 3 3 3 2 2 2 1 0 0 1 1 1 1 1 2 1 1 2 2 2 3 3
1 1 1 2 2 1 2 2 2 2 2 2 2 2 3 3 2 2 1 1 2 2 2 2 2 2 2 1 1 1 1 1 1 1 1 1 1 1 2 2 2 2 2 2
1 1 1 1 2 2 2 2 2 2 2 2 1 2 2 2 2 1 1 2 3 2 2 2 2 2 1 1 1 1 1 1 1 1 1 1 1 1 2 2 2 3 3 2
1 1 1 1 2 3 3 2 2 2 2 2 2 1 2 2 2 2 1 2 2 3 2 1 1 2 2 2 1 1 1 1 1 1 1 1 1 2 2 2 2 3 3 3
1 1 1 1 2 2 3 2 2 2 2 2 2 2 2 2 1 1 2 2 2 3 2 1 2 3 3 2 1 1 1 1 1 1 1 1 1 1 2 2 2 3 3 3
1 1 1 1 1 1 2 3 2 2 1 2 2 2 2 1 2 1 2 3 4 4 2 2 3 3 3 2 1 1 1 1 1 1 1 1 1 1 2 2 2 3 3 3
1 1 0 0 0 1 2 2 2 2 2 2 2 2 2 1 1 2 2 2 3 3 2 2 3 3 2 1 1 1 1 1 1 1 1 1 2 2 2 2 2 3 3 3
1 1 1 2 2 2 1 1 1 1 1 2 2 2 2 1 1 1 1 2 2 3 2 2 2 2 1 1 1 1 1 2 2 2 2 2 2 2 2 2 3 3 3 3
0 0 0 1 1 1 1 1 1 2 1 1 2 2 2 2 1 1 2 2 2 2 2 2 2 1 1 1 1 1 1 1 2 2 2 2 2 2 2 3 3 3 3 4
Wind_Direction
257 270 254 253 255 234 225 229 233 254 263 276 279 282 292 300 309 314 314 312 305 302 297 296 295 294 300 308 315 321 317 311 303 307 308 310 308 305 310 311 300 291 291 295
279 268 261 269 262 248 245 244 244 262 272 275 288 302 303 304 303 302 305 306 306 305 302 296 290 287 290 294 299 303 300 299 308 316 317 313 308 306 312 311 307 306 298 298
267 295 319 275 246 227 233 233 224 245 263 293 302 298 289 291 291 294 297 300 300 298 293 289 284 283 278 271 287 297 300 306 319 320 312 307 305 308 308 304 309 316 311 312
275 11 252 252 233 209 234 258 240 249 267 279 280 289 289 277 275 289 296 298 298 297 298 297 291 290 287 279 280 297 306 314 322 321 314 312 313 311 309 301 299 304 306 315
170 252 276 284 252 193 215 272 246 243 279 302 311 316 298 264 265 279 287 290 289 288 291 295 293 290 289 295 310 316 311 311 315 314 309 309 304 303 309 319 316 309 306 306
171 228 255 266 254 208 139 284 251 237 277 296 321 306 292 305 304 300 299 298 297 298 298 298 296 300 282 300 309 303 304 306 309 308 304 300 293 296 307 308 308 319 319 315
207 240 263 264 267 106 171 268 288 271 272 269 263 264 290 302 302 301 303 307 310 308 301 289 286 279 278 290 297 308 319 320 324 320 310 306 315 310 304 316 339 337 325 316
180 222 258 242 142 191 234 282 292 288 280 273 277 292 302 302 305 312 318 321 323 321 314 308 305 287 290 293 309 328 337 343 337 328 327 341 355 341 333 357 353 333 327 322
202 225 259 226 222 248 257 272 283 282 285 279 284 291 300 302 307 310 315 318 320 315 322 332 338 330 286 300 322 338 354 354 344 341 343 347 346 337 353 18 4 331 326 325
254 265 262 259 262 271 262 260 278 282 283 280 281 289 298 301 307 311 315 317 320 330 340 333 336 339 304 307 320 342 347 342 345 352 352 354 352 347 359 1 343 331 329 329
256 273 293 276 247 256 272 277 285 292 283 273 276 286 289 296 302 305 309 313 317 321 317 318 329 330 326 325 344 348 339 336 344 348 349 347 346 346 340 327 315 304 300 300
242 242 231 262 264 259 265 271 278 286 292 290 275 279 289 293 295 296 300 305 319 317 314 316 324 322 322 317 273 190 329 335 336 343 345 348 348 347 353 343 337 339 336 329
242 259 251 266 279 271 259 268 278 275 272 283 286 281 285 291 295 299 304 305 298 300 304 310 318 319 319 317 308 208 253 302 318 335 341 343 347 354 344 344 348 352 353 349
249 258 271 264 268 279 277 282 284 286 286 280 279 287 290 293 297 302 303 302 299 300 300 305 313 314 315 313 310 296 297 308 319 316 325 329 330 333 335 337 341 343 346 350
265 247 247 271 284 291 293 295 302 302 301 301 291 286 288 293 297 301 304 310 321 321 317 321 321 318 325 322 320 312 314 303 311 322 325 327 339 347 343 338 338 336 342 345
284 285 261 262 272 286 294 287 280 285 289 292 295 297 294 290 294 301 306 311 317 306 309 314 312 315 326 332 338 332 314 315 338 341 337 343 353 355 348 343 341 340 338 338
238 264 260 268 273 277 274 268 264 271 282 286 289 297 305 311 313 311 314 318 300 289 293 293 302 317 324 329 332 324 332 326 348 355 340 333 335 341 337 334 332 330 326 335
233 241 243 249 257 267 274 279 278 277 277 281 295 300 297 293 290 294 303 321 340 337 325 309 307 320 326 338 351 353 345 344 343 329 329 335 342 345 349 343 339 336 330 336
247 253 270 272 262 254 262 277 287 289 291 293 293 290 288 284 283 291 308 332 324 318 317 318 331 360 350 340 4 41 45 27 1 347 345 338 358 1 350 346 340 332 330 333
298 307 306 314 316 289 286 299 306 310 309 307 303 306 310 307 312 324 348 311 281 274 294 314 342 346 334 327 3 49 62 41 16 357 351 345 349 346 345 343 341 338 332 327
292 306 317 322 326 325 314 315 317 313 321 327 309 297 305 318 329 338 354 318 313 314 318 328 351 333 322 340 20 58 59 40 5 338 334 335 340 339 339 336 330 331 331 327
285 290 298 316 327 326 329 332 321 317 325 328 324 321 327 330 339 338 294 262 295 321 340 332 323 317 335 19 48 52 37 14 352 338 332 327 323 319 319 319 316 317 321 322
267 274 287 302 305 312 330 336 329 324 316 309 304 299 296 297 299 308 314 310 316 326 345 322 317 332 4 47 55 53 36 10 347 330 322 313 308 307 306 308 309 313 315 317
248 265 279 315 356 343 328 326 332 329 315 305 296 291 293 313 318 286 280 311 328 338 352 325 333 356 30 55 49 31 0 332 316 303 300 299 294 296 298 301 305 307 308 311
220 240 223 129 286 281 285 313 334 341 346 335 323 317 308 276 266 302 318 323 335 352 357 346 358 11 29 33 11 329 302 280 276 279 276 283 288 292 293 295 298 303 306 307
202 217 230 232 242 260 268 278 295 312 328 333 334 332 338 338 323 325 336 342 347 354 356 352 356 3 15 1 336 316 302 300 307 305 292 288 285 285 288 292 296 297 298 297
171 209 255 295 287 260 251 247 255 279 281 275 305 324 337 344 349 351 351 353 359 358 350 351 355 357 356 349 335 320 306 296 289 284 282 279 276 276 279 285 291 295 297 296
Height
1502 1499 1499 1498 1496 1497 1497 1494 1493 1485 1483 1476 1475 1474 1473 1472 1470 1469 1468 1466 1465 1463 1462 1461 1460 1459 1459 1458 1458 1457 1457 1455 1454 1454 1454 1454 1454 1453 1453 1452 1452 1451 1451 1451
1501 1497 1498 1496 1492 1491 1490 1488 1487 1483 1479 1474 1473 1473 1471 1469 1468 1467 1465 1464 1462 1460 1459 1458 1457 1456 1455 1455 1455 1454 1453 1453 1452 1451 1451 1451 1451 1450 1450 1449 1449 1449 1448 1448
1499 1499 1496 1493 1486 1485 1485 1483 1483 1481 1476 1473 1472 1471 1469 1467 1466 1464 1463 1461 1459 1457 1456 1455 1454 1453 1452 1452 1452 1451 1450 1450 1449 1449 1448 1448 1448 1447 1447 1446 1446 1446 1446 1445
1502 1501 1495 1483 1481 1481 1481 1479 1478 1476 1473 1472 1471 1468 1466 1465 1464 1462 1461 1458 1457 1455 1453 1452 1451 1451 1450 1450 1449 1448 1448 1448 1447 1446 1446 1445 1445 1444 1444 1444 1443 1443 1444 1443
1504 1501 1493 1482 1479 1480 1480 1477 1474 1474 1472 1471 1469 1466 1463 1463 1462 1461 1459 1456 1454 1453 1451 1450 1449 1448 1447 1447 1447 1446 1445 1445 1445 1444 1444 1443 1442 1442 1442 1442 1441 1441 1442 1441
1504 1498 1490 1478 1477 1476 1478 1476 1471 1471 1470 1469 1468 1467 1462 1460 1459 1457 1456 1454 1451 1449 1448 1447 1446 1446 1445 1445 1444 1444 1443 1443 1443 1442 1442 1441 1440 1440 1440 1440 1440 1440 1440 1440
1501 1499 1487 1477 1475 1476 1480 1474 1469 1468 1467 1467 1466 1464 1461 1458 1456 1454 1452 1450 1448 1446 1445 1444 1444 1443 1443 1443 1442 1442 1441 1441 1441 1440 1440 1439 1438 1438 1438 1438 1438 1438 1438 1438
1499 1496 1484 1475 1475 1476 1473 1468 1467 1466 1465 1464 1462 1460 1458 1455 1453 1451 1449 1447 1445 1444 1443 1442 1442 1441 1441 1440 1440 1440 1440 1440 1439 1439 1438 1437 1437 1437 1437 1436 1436 1436 1436 1436
1487 1481 1474 1471 1470 1469 1469 1467 1465 1464 1463 1461 1459 1457 1455 1453 1451 1449 1447 1445 1443 1442 1441 1441 1440 1439 1439 1439 1439 1438 1438 1438 1437 1437 1436 1436 1436 1435 1435 1435 1435 1435 1434 1434
1481 1473 1470 1469 1468 1467 1466 1465 1464 1462 1460 1459 1457 1454 1453 1450 1448 1446 1445 1443 1442 1440 1439 1439 1438 1438 1438 1438 1437 1437 1436 1436 1436 1435 1435 1435 1434 1434 1434 1434 1434 1433 1433 1433
1477 1471 1468 1465 1464 1464 1463 1462 1461 1459 1458 1456 1455 1452 1450 1448 1446 1444 1443 1441 1440 1439 1438 1438 1437 1436 1436 1436 1436 1435 1435 1435 1434 1434 1434 1433 1433 1433 1433 1433 1433 1433 1432 1432
1469 1465 1465 1463 1461 1461 1460 1459 1458 1456 1454 1453 1452 1450 1448 1446 1444 1443 1441 1440 1439 1438 1437 1436 1436 1435 1435 1434 1434 1434 1433 1433 1433 1433 1433 1432 1432 1432 1432 1432 1432 1431 1431 1431
1462 1461 1461 1459 1459 1458 1457 1456 1455 1454 1452 1450 1449 1447 1446 1444 1442 1441 1440 1439 1438 1437 1436 1435 1434 1434 1433 1433 1433 1433 1432 1432 1432 1432 1431 1431 1431 1431 1430 1430 1430 1429 1429 1429
1459 1459 1457 1456 1456 1455 1454 1453 1452 1451 1449 1448 1447 1445 1443 1442 1440 1439 1438 1437 1436 1436 1435 1434 1434 1433 1432 1432 1432 1432 1431 1431 1431 1431 1431 1431 1430 1430 1429 1428 1428 1428 1428 1427
1456 1456 1455 1454 1453 1452 1451 1451 1449 1448 1447 1445 1444 1443 1441 1440 1439 1438 1437 1436 1435 1434 1434 1433 1432 1432 1431 1431 1431 1430 1430 1430 1430 1430 1430 1430 1430 1429 1429 1428 1427 1427 1426 1426
1453 1453 1452 1451 1450 1449 1449 1448 1447 1445 1444 1443 1442 1441 1440 1438 1437 1436 1435 1434 1434 1433 1432 1432 1431 1431 1430 1430 1430 1430 1430 1430 1430 1430 1429 1429 1429 1429 1428 1428 1427 1426 1426 1425
1450 1449 1448 1448 1447 1446 1446 1445 1445 1443 1442 1441 1440 1439 1438 1437 1436 1435 1434 1433 1433 1432 1431 1431 1431 1430 1430 1429 1429 1429 1429 1429 1429 1429 1429 1429 1428 1428 1428 1427 1427 1426 1425 1425
1448 1448 1447 1446 1445 1444 1444 1443 1442 1441 1440 1439 1438 1437 1436 1435 1434 1433 1432 1432 1431 1431 1430 1430 1430 1429 1429 1429 1428 1428 1428 1428 1428 1428 1428 1428 1428 1428 1427 1427 1426 1425 1425 1424
1445 1445 1445 1444 1443 1443 1442 1441 1440 1440 1439 1438 1436 1435 1434 1433 1433 1432 1431 1430 1430 1429 1429 1429 1429 1429 1428 1428 1428 1428 1428 1428 1428 1428 1428 1428 1427 1427 1426 1426 1425 1425 1424 1423
1444 1444 1443 1443 1442 1441 1440 1440 1439 1438 1437 1436 1435 1434 1433 1432 1431 1430 1430 1429 1429 1429 1429 1428 1428 1428 1428 1428 1427 1427 1427 1427 1427 1427 1427 1427 1426 1426 1425 1425 1424 1424 1423 1422
1442 1442 1442 1441 1441 1440 1439 1438 1437 1437 1436 1435 1434 1433 1432 1431 1430 1430 1429 1429 1429 1428 1428 1428 1428 1427 1427 1427 1427 1427 1426 1426 1426 1426 1426 1425 1425 1425 1424 1424 1423 1423 1422 1421
1441 1441 1441 1441 1440 1439 1438 1438 1437 1436 1435 1434 1433 1432 1431 1430 1430 1429 1429 1429 1428 1428 1427 1427 1427 1427 1427 1426 1426 1426 1426 1425 1425 1425 1425 1424 1424 1424 1423 1423 1422 1421 1421 1420
1440 1440 1440 1440 1439 1438 1438 1437 1436 1435 1434 1433 1432 1431 1431 1430 1429 1428 1428 1428 1427 1427 1427 1426 1426 1426 1426 1426 1425 1425 1425 1424 1424 1424 1424 1423 1423 1422 1422 1421 1421 1420 1419 1419
1439 1439 1439 1439 1438 1438 1437 1436 1436 1435 1434 1433 1432 1431 1430 1429 1429 1429 1428 1427 1427 1426 1426 1426 1426 1426 1425 1425 1425 1424 1424 1423 1423 1423 1422 1422 1421 1421 1420 1420 1419 1419 1418 1417
1438 1438 1438 1438 1437 1437 1436 1436 1435 1434 1433 1433 1432 1431 1430 1430 1429 1428 1427 1427 1427 1426 1426 1425 1425 1425 1424 1424 1424 1423 1423 1422 1422 1421 1421 1420 1420 1420 1419 1418 1418 1417 1417 1416
1437 1437 1437 1437 1437 1436 1436 1435 1434 1433 1433 1432 1431 1431 1430 1429 1428 1428 1427 1427 1426 1426 1425 1425 1424 1424 1424 1423 1423 1422 1422 1421 1420 1420 1419 1419 1418 1418 1417 1417 1416 1416 1415 1414
1436 1436 1436 1436 1436 1435 1435 1434 1433 1433 1432 1431 1431 1430 1429 1429 1428 1427 1427 1426 1426 1425 1425 1424 1424 1423 1423 1422 1422 1421 1420 1420 1419 1418 1418 1417 1417 1416 1416 1415 1414 1414 1413 1413